Погода в Санье

Китай     18°15′15″N   109°30′30″E
темп.,
°C
ветер,
м/с
пор.,
м/с
влажн.,
%
обл.,
%
осадки,
мм/ч
давл.,
гПа
погр.,
м
25 января, вт
вт2523:00+21всв238827 0.0 1012117
02:00+21св23915 0.0 1012110
05:00+21св33885 0.0 1012101
08:00+21св24853 0.0 1013127
11:00+27в45610 0.0 1014832
14:00+28вюв545821 0.0 10111266
17:00+26в55688 0.0 1011789
20:00+22всв36895 0.1 1013282
26 января, ср
ср2623:00+21всв36926 0.0 1013275
02:00+20св359417 0.1 1013208
05:00+20св349120 0.1 1012155
08:00+21св248768 0.1 1014137
11:00+26в45646 0.0 1015918
14:00+27вюв55599 0.0 10121239
17:00+26в56678 0.0 1011726
20:00+22всв47872 0.0 1013377
27 января, чт
чт2723:00+21св35924 0.0 1014225
02:00+20св36925 0.0 1013206
05:00+20св34925 0.0 1012136
08:00+21св23879 0.0 1014121
11:00+26в576311 0.0 10151020
14:00+28в56575 0.0 10121322
17:00+26в686913 0.0 1011804
20:00+22всв49856 0.0 1013490
28 января, пт
пт2823:00+21св35906 0.0 1014240
02:00+20св349260 0.0 1013158
05:00+20св35934 0.0 1012164
08:00+21св23885 0.0 1013120
11:00+27в466318 0.0 1014986
14:00+27в666325 0.0 10111161
17:00+25в577212 0.0 1010847
20:00+22всв488720 0.0 1012457
29 января, сб
сб2923:00+21всв47915 0.0 1013286
02:00+20всв369365 0.0 1011253
05:00+20св35936 0.0 1010171
08:00+21св24855 0.0 1011152
11:00+27в456125 0.0 1012997
14:00+27вюв545983 0.0 10091152
17:00+26вюв556736 0.0 1008812
20:00+22всв368912 0.0 1011277